^^
Station Historical Data
 
Daily Summary for June 27, 2017 Units:  English    Metric   Both
« Previous Day
Next Day »
Daily Weekly Monthly Yearly Custom
  Current: High: Low: Average:
Temperature: 55.7 °F 66.2 °F 55.6 °F 60.3 °F
Dew Point: 52.5 °F 54.9 °F 52.1 °F 53.8 °F
Humidity: 89% 89% 66% 79%
Wind Speed: 0.0mph 4.6mph 0.0mph 0.5mph
Wind Gust: 0.0mph 4.6mph - -
WindCalm - - ENE
Pressure: 29.60 in 29.69 in 29.60 in -
Precipitation: 0.00 in      
Historical Graphs
 
 
Tabular Data for June 27, 2017
Time Temperature Dew Point Pressure Wind Wind Speed Wind Gust Humidity Rainfall Rate (Hourly) solar Conditions
00:04 66.2 °F 54.5 °F 29.69 in SE 4.6 mph 4.6 mph 66% 0.00 in WeatherDisplay:10.37 W/m2 CLR
00:09 66.1 °F 54.4 °F 29.69 in East 1.2 mph   66% 0.00 in WeatherDisplay:10.37 W/m2 CLR
00:14 65.9 °F 54.6 °F 29.69 in Calm   0.1 mph 67% 0.00 in WeatherDisplay:10.37 W/m2 CLR
00:19 65.7 °F 54.4 °F 29.69 in Calm     67% 0.00 in WeatherDisplay:10.37 W/m2 CLR
00:24 65.5 °F 54.7 °F 29.68 in East 2.3 mph   68% 0.00 in WeatherDisplay:10.37 W/m2 CLR
00:29 65.3 °F 54.5 °F 29.69 in East 1.2 mph 1.2 mph 68% 0.00 in WeatherDisplay:10.37 W/m2 CLR
00:34 65.3 °F 54.9 °F 29.69 in Calm     69% 0.00 in WeatherDisplay:10.37 W/m2 CLR
00:39 65.2 °F 54.8 °F 29.69 in Calm     69% 0.00 in WeatherDisplay:10.37 W/m2 CLR
00:44 65.1 °F 54.7 °F 29.68 in East 1.2 mph   69% 0.00 in WeatherDisplay:10.37 W/m2 CLR
00:49 64.9 °F 54.5 °F 29.69 in Calm     69% 0.00 in WeatherDisplay:10.37 W/m2 CLR
00:54 64.8 °F 54.4 °F 29.68 in Calm     69% 0.00 in WeatherDisplay:10.37 W/m2 CLR
00:59 64.6 °F 54.6 °F 29.68 in Calm     70% 0.00 in WeatherDisplay:10.37 W/m2 CLR
01:04 64.3 °F 54.3 °F 29.67 in Calm     70% 0.00 in WeatherDisplay:10.37 W/m2 CLR
01:09 64.0 °F 54.4 °F 29.67 in East 1.0 mph 1.0 mph 71% 0.00 in WeatherDisplay:10.37 W/m2 CLR
01:14 63.8 °F 54.6 °F 29.67 in East 1.2 mph   72% 0.00 in WeatherDisplay:10.37 W/m2 CLR
01:19 63.6 °F 54.4 °F 29.66 in Calm     72% 0.00 in WeatherDisplay:10.37 W/m2 CLR
01:24 63.3 °F 54.1 °F 29.66 in Calm     72% 0.00 in WeatherDisplay:10.37 W/m2 CLR
01:29 63.0 °F 54.2 °F 29.66 in Calm     73% 0.00 in WeatherDisplay:10.37 W/m2 CLR
01:34 62.6 °F 54.2 °F 29.66 in East 1.2 mph 1.2 mph 74% 0.00 in WeatherDisplay:10.37 W/m2 CLR
01:39 62.3 °F 54.6 °F 29.66 in East 1.0 mph 1.0 mph 76% 0.00 in WeatherDisplay:10.37 W/m2 CLR
01:44 62.2 °F 54.5 °F 29.66 in Calm     76% 0.00 in WeatherDisplay:10.37 W/m2 CLR
01:49 62.0 °F 54.3 °F 29.66 in East 1.2 mph   76% 0.00 in WeatherDisplay:10.37 W/m2 CLR
01:54 61.9 °F 54.6 °F 29.66 in Calm     77% 0.00 in WeatherDisplay:10.37 W/m2 CLR
01:59 61.8 °F 54.5 °F 29.65 in NE 1.2 mph   77% 0.00 in WeatherDisplay:10.37 W/m2 CLR
02:04 61.6 °F 54.3 °F 29.63 in NE 1.2 mph   77% 0.00 in WeatherDisplay:10.37 W/m2 CLR
02:09 61.3 °F 54.0 °F 29.64 in Calm   0.1 mph 77% 0.00 in WeatherDisplay:10.37 W/m2 CLR
02:14 61.0 °F 53.7 °F 29.64 in Calm     77% 0.00 in WeatherDisplay:10.37 W/m2 CLR
02:19 60.7 °F 53.8 °F 29.64 in NE 1.2 mph 1.2 mph 78% 0.00 in WeatherDisplay:10.37 W/m2 CLR
02:24 60.5 °F 53.6 °F 29.64 in Calm     78% 0.00 in WeatherDisplay:10.37 W/m2 CLR
02:29 60.2 °F 53.7 °F 29.64 in NE 1.2 mph 1.2 mph 79% 0.00 in WeatherDisplay:10.37 W/m2 CLR
02:34 60.0 °F 53.5 °F 29.64 in Calm     79% 0.00 in WeatherDisplay:10.37 W/m2 CLR
02:39 59.8 °F 54.0 °F 29.64 in Calm   0.2 mph 81% 0.00 in WeatherDisplay:10.37 W/m2 CLR
02:44 59.9 °F 54.4 °F 29.64 in Calm     82% 0.00 in WeatherDisplay:10.37 W/m2 CLR
02:49 60.0 °F 54.5 °F 29.64 in NE 2.0 mph 2.0 mph 82% 0.00 in WeatherDisplay:10.37 W/m2 CLR
02:54 60.0 °F 54.5 °F 29.63 in NE 1.2 mph 1.2 mph 82% 0.00 in WeatherDisplay:10.37 W/m2 CLR
02:59 60.1 °F 54.6 °F 29.63 in NNE 1.2 mph 1.2 mph 82% 0.00 in WeatherDisplay:10.37 W/m2 CLR
03:04 60.0 °F 54.5 °F 29.63 in Calm     82% 0.00 in WeatherDisplay:10.37 W/m2 CLR
03:09 59.9 °F 54.4 °F 29.62 in NNE 1.2 mph   82% 0.00 in WeatherDisplay:10.37 W/m2 CLR
03:14 59.8 °F 54.3 °F 29.62 in Calm     82% 0.00 in WeatherDisplay:10.37 W/m2 CLR
03:19 59.6 °F 54.1 °F 29.61 in Calm     82% 0.00 in WeatherDisplay:10.37 W/m2 CLR
03:24 59.3 °F 53.8 °F 29.62 in Calm     82% 0.00 in WeatherDisplay:10.37 W/m2 CLR
03:29 59.0 °F 53.8 °F 29.62 in Calm     83% 0.00 in WeatherDisplay:10.37 W/m2 CLR
03:34 59.0 °F 53.8 °F 29.62 in Calm     83% 0.00 in WeatherDisplay:10.37 W/m2 CLR
03:39 59.0 °F 54.2 °F 29.62 in NNE 1.2 mph   84% 0.00 in WeatherDisplay:10.37 W/m2 CLR
03:44 58.8 °F 54.0 °F 29.62 in Calm     84% 0.00 in WeatherDisplay:10.37 W/m2 CLR
03:49 58.6 °F 54.1 °F 29.62 in NNE 1.2 mph   85% 0.00 in WeatherDisplay:10.37 W/m2 CLR
03:54 58.6 °F 54.1 °F 29.62 in Calm     85% 0.00 in WeatherDisplay:10.37 W/m2 CLR
03:59 58.6 °F 54.1 °F 29.62 in Calm   0.1 mph 85% 0.00 in WeatherDisplay:10.37 W/m2 CLR
04:04 58.7 °F 54.2 °F 29.61 in Calm   0.1 mph 85% 0.00 in WeatherDisplay:10.37 W/m2 CLR
04:09 58.8 °F 54.3 °F 29.61 in NNE 1.2 mph 1.2 mph 85% 0.00 in WeatherDisplay:10.37 W/m2 CLR
04:15 58.8 °F 54.3 °F 29.61 in NNE 1.2 mph 1.2 mph 85% 0.00 in WeatherDisplay:10.37 W/m2 CLR
04:20 58.8 °F 54.0 °F 29.60 in NNE 1.2 mph   84% 0.00 in WeatherDisplay:10.37 W/m2 CLR
04:25 58.6 °F 53.8 °F 29.60 in Calm     84% 0.00 in WeatherDisplay:10.37 W/m2 CLR
04:30 58.4 °F 53.3 °F 29.60 in Calm     83% 0.00 in WeatherDisplay:10.37 W/m2 CLR
04:35 58.1 °F 53.0 °F 29.60 in Calm     83% 0.00 in WeatherDisplay:10.37 W/m2 CLR
04:40 57.8 °F 52.7 °F 29.60 in NNE 1.2 mph   83% 0.00 in WeatherDisplay:10.37 W/m2 CLR
04:45 57.5 °F 52.7 °F 29.60 in Calm     84% 0.00 in WeatherDisplay:10.37 W/m2 CLR
04:50 57.2 °F 52.4 °F 29.61 in Calm     84% 0.00 in WeatherDisplay:10.37 W/m2 CLR
04:55 56.9 °F 52.4 °F 29.61 in Calm     85% 0.00 in WeatherDisplay:10.37 W/m2 CLR
05:00 56.7 °F 52.6 °F 29.61 in Calm     86% 0.00 in WeatherDisplay:10.37 W/m2 CLR
05:05 56.5 °F 52.4 °F 29.61 in Calm     86% 0.00 in WeatherDisplay:10.37 W/m2 CLR
05:10 56.3 °F 52.5 °F 29.61 in Calm     87% 0.00 in WeatherDisplay:10.37 W/m2 CLR
05:15 56.2 °F 52.4 °F 29.61 in Calm     87% 0.00 in WeatherDisplay:10.37 W/m2 CLR
05:20 56.0 °F 52.2 °F 29.61 in Calm     87% 0.00 in WeatherDisplay:10.37 W/m2 CLR
05:25 56.0 °F 52.5 °F 29.60 in Calm     88% 0.00 in WeatherDisplay:10.37 W/m2 CLR
05:30 56.0 °F 52.5 °F 29.60 in Calm     88% 0.00 in WeatherDisplay:10.37 W/m2 CLR
05:35 55.9 °F 52.4 °F 29.60 in Calm     88% 0.00 in WeatherDisplay:10.37 W/m2 CLR
05:40 55.8 °F 52.3 °F 29.61 in Calm     88% 0.00 in WeatherDisplay:10.37 W/m2 CLR
05:45 55.7 °F 52.2 °F 29.60 in Calm     88% 0.00 in WeatherDisplay:10.37 W/m2 CLR
05:50 55.6 °F 52.1 °F 29.61 in Calm     88% 0.00 in WeatherDisplay:10.37 W/m2 CLR
05:55 55.6 °F 52.4 °F 29.60 in Calm     89% 0.00 in WeatherDisplay:10.37 W/m2 CLR
06:00 55.7 °F 52.5 °F 29.60 in Calm     89% 0.00 in WeatherDisplay:10.37 W/m2 CLR
Windsor Co Weather
Compliments of Weather Underground - 1.75 mb